Showing default

FLOCK 4G 12, 62625

Orbit data source: Space-Track

FLOCK 4G 12, 62625 is a payload satellite owned by Planet (US) in SSO that was launched on Tue, 14 Jan 2025 UTC via an FALCON 9 launch vehicle from the Air Force Western Test Range (AFWTR). Payload-class satellites include a variety of spacecraft equipped with specific instruments for various scientific and technological missions. These include communications satellites like Starlink; space stations such as the ISS; scientific satellites like the Hubble; Earth observation satellites from companies like Planet Labs, Umbra, and HawkEye 360; GPS; miniature CubeSats for education and research; and military/defense satellites.

Loading next visibility...
Identifier
62625, 2025-009S
Orbit
SSO
Country
Flag of USUS
Related business
Manufacturer
Planet
Mission
Operational Commercial Imaging
Bus & Motor
CUBESAT 3U, Unknown motor
Mass
5.7 kg wet, 5.7 kg dry
Launch date (UTC)
2025-01-14 (2 years ago)
Launch vehicle
FALCON 9
Launch site
Air Force Western Test Range (AFWTR)
Object type
Payload
Rocket body
Debris
Shape & HBR
Box + 2 Pan, 1.0 m
Radar Cross Section
0.072 m², Medium (>0.1 m² and < 1m²)

Expand to show TLE details & history
Last TLE update: 9 hours ago

TLE from 9 hours ago
0 FLOCK 4G 12
1 62625U 25009S   26238.17109569  .00009511  00000-0  32483-3 0  9995
2 62625  97.3994 319.7283 0005469  73.6143 286.5699 15.30505196 89608
Epoch: 2026-08-26T04:06Z
TLE epoch observation values (Epoch: 2026-08-26T04:06:22.667Z)
Latitude
-0.00001°
Longitude
-76.29407°
Altitude
476.342 km
Speed
7.628 km/s
True Right ascension
21h 18m 54s
True Declination
0° 00' 00"
Sunlit
Object was in full shadow at epoch
Visualization orbit readout
Latitude
Unknown
Longitude
Unknown
Altitude
Unknown
Speed
Unknown
Apparent Right ascension
Unknown
Apparent Declination
Unknown
Sunlit
N/A
Visualization observer readout
Local Sidereal Time
04:38:11
Azimuth
Unknown
Elevation
Unknown
Doppler factor
Unknown
Orbital elements
Apogee altitude
475.001 km
Perigee altitude
467.51 km
Semi-major axis
6,849.393 km
Eccentricity
0.00055
Inclination
97.3994°
RAAN
319.7283°
Arg. of periapsis
73.6143°
True anomaly
286.50982°
Mean anomaly
286.5699°
Eccentric anomaly
286.53986°
Mean motion
3.82882 °/min
Orbital period
94.02 mins
BSTAR
0.00032483
Loading maneuver chart data...
Computing Atmospheric mass density...
Loading historical data...
Loading historical data...
Loading historical data...
Loading historical data...
Loading historical data...
Loading historical data...
Loading historical data...

Documentation

Showing up to 5 results
|